This is the latest recevied weather packets stored in our database for station/object OE2ATN. If no packets are shown the sender has not sent any weather packets the latest 1 day(s).
| Time | Temp. | Humidity | Pressure | Rain* | Wind** | Luminosity | Snow |
|---|---|---|---|---|---|---|---|
| 1777989900 | 20° C | 45% | 1014.4 hPa | 0 mm | 0.45 m/s, 199° | - | - |
| 1777989599 | 20° C | 43% | 1014.3 hPa | 0 mm | 0.89 m/s, 154° | - | - |
| 1777989298 | 19.44° C | 44% | 1014.3 hPa | 0 mm | 1.79 m/s, 133° | - | - |
| 1777988998 | 20° C | 44% | 1014.3 hPa | 0 mm | 2.68 m/s, 109° | - | - |
| 1777988698 | 20° C | 43% | 1014.3 hPa | 0 mm | 2.24 m/s, 125° | - | - |
| 1777988401 | 20.56° C | 43% | 1014.3 hPa | 0 mm | 1.34 m/s, 120° | - | - |
| 1777988099 | 20.56° C | 42% | 1014.3 hPa | 0 mm | 0.89 m/s, 107° | - | - |
| 1777987799 | 20.56° C | 40% | 1014.4 hPa | 0 mm | 0.89 m/s, 123° | - | - |
| 1777987499 | 20.56° C | 41% | 1014.4 hPa | 0 mm | 0.45 m/s, 133° | - | - |
| 1777987198 | 20.56° C | 42% | 1014.4 hPa | 0 mm | 0.89 m/s, 147° | - | - |
| 1777986898 | 20.56° C | 40% | 1014.4 hPa | 0 mm | 1.34 m/s, 137° | - | - |
| 1777986597 | 20.56° C | 42% | 1014.4 hPa | 0 mm | 1.79 m/s, 134° | - | - |
| 1777986298 | 21.11° C | 40% | 1014.5 hPa | 0 mm | 1.34 m/s, 151° | - | - |
| 1777985997 | 21.11° C | 42% | 1014.5 hPa | 0 mm | 0.89 m/s, 151° | - | - |
| 1777985698 | 21.11° C | 41% | 1014.4 hPa | 0 mm | 0.45 m/s, 114° | - | - |
| 1777985398 | 21.11° C | 40% | 1014.6 hPa | 0 mm | 0.89 m/s, 228° | - | - |
| 1777985098 | 20.56° C | 40% | 1014.5 hPa | 0 mm | 0 m/s | - | - |
| 1777984798 | 20.56° C | 40% | 1014.4 hPa | 0 mm | 1.34 m/s, 100° | - | - |
| 1777984498 | 20.56° C | 40% | 1014.6 hPa | 0 mm | 3.13 m/s, 114° | - | - |
| 1777984198 | 20.56° C | 39% | 1014.5 hPa | 0 mm | 2.24 m/s, 75° | - | - |
| 1777983898 | 21.11° C | 42% | 1014.4 hPa | 0 mm | 2.24 m/s, 121° | - | - |
| 1777983597 | 21.11° C | 38% | 1014.5 hPa | 0 mm | 1.79 m/s, 111° | - | - |
| 1777983297 | 21.11° C | 38% | 1014.5 hPa | 0 mm | 3.13 m/s, 168° | - | - |
| 1777982997 | 21.67° C | 35% | 1014.5 hPa | 0 mm | 0.45 m/s, 118° | - | - |
| 1777982697 | 21.11° C | 42% | 1014.6 hPa | 0 mm | 0.89 m/s, 182° | - | - |
* Rain latest hour (hover to see other rain measurements)
** Current wind speed in m/s (hover to see current wind gust speed)